Regional Weather Roundup
Issued by NWS Sterling, VA

Home | Current Version | Previous Version | Text Only | Print | Product List | Glossary Off
Versions: 1 2 3 4 5 6 7 8 9 10 11 12 13 14 15 16 17 18 19 20 21 22 23 24 25 26 27

000
ASUS41 KLWX 260610
RWRLWX

REGIONAL WEATHER ROUNDUP
NATIONAL WEATHER SERVICE BALTIMORE MD/WASHINGTON DC
200 AM EDT FRI AUG 26 2016

Note: "FAIR" indicates few or no clouds below 12,000 feet
with no significant weather and/or obstructions to visibility.
 TC=TEMPERATURE CELSIUS

 * =Non NWS site. Station does not report precipitation (e.g. rain,
    snow, etc.), thunder, or fog.

DCZ001-MDZ009-015-VAZ040>042-051-053>054-260700-
WASHINGTON METRO

CITY           SKY/WX    TMP DP  RH WIND       PRES   REMARKS
WASHINGTON NAT FAIR      79  74  84 S6        30.02S
DULLES         FAIR      77  73  87 CALM      30.02S
ANDREWS AFB    FAIR      76  72  89 S6        30.01S
FT BELVOIR     FAIR      73  72  94 CALM      30.01S FOG
COLLEGE PARK*  FAIR      73  72  94 CALM      30.01S
LEESBURG*      FAIR      77  77 100 SW9       30.03S
MANASSAS*      FAIR      73  73 100 CALM      30.02S
GAITHERSBURG*  FAIR      75  72  88 CALM      30.06S

$$

MDZ006>007-011-014-260700-
BALTIMORE METRO

CITY           SKY/WX    TMP DP  RH WIND       PRES   REMARKS
BWI AIRPORT    FAIR      77  72  84 SW3       30.00F
MD SCIENCE CTR   N/A     80  72  76 MISG      30.00F
MARTIN STATE   FAIR      79  79 100 S3        30.01F
ANNAPOLIS      FAIR      79  73  82 VRB5      30.00S
FORT MEADE*    FAIR     N/A N/A N/A CALM      30.04S

$$

MDZ012-015-019>023-260700-
MARYLAND EASTERN SHORE

CITY           SKY/WX    TMP DP  RH WIND       PRES   REMARKS
OCEAN CITY     FAIR      78  71  79 SW8       30.04F
SALISBURY      FAIR      73  70  90 S7        30.03F
BAY BRIDGE AP* FAIR      79  75  89 S5        30.01S
EASTON*        FAIR      78  76  96 SW5       30.05F

$$

MDZ017>025-260700-
SOUTHERN MARYLAND

CITY           SKY/WX    TMP DP  RH WIND       PRES   REMARKS
PATUXENT RIVER FAIR      78  71  79 S5        30.02S
ST INIGOES     FAIR      79  73  82 S7        30.02S
LEONARDTOWN*   FAIR      77  70  78 S3        30.04S

$$

MDZ003>005-260700-
NORTH CENTRAL MARYLAND

CITY           SKY/WX    TMP DP  RH WIND       PRES   REMARKS
FREDERICK*     FAIR      73  73 100 SE3       30.03F FOG
HAGERSTOWN APT FAIR      79  73  82 S7        30.01F

$$

MDZ501>502-260700-
WESTERN MARYLAND

CITY           SKY/WX    TMP DP  RH WIND       PRES   REMARKS
OAKLAND*       MOCLDY    70  70 100 W9        30.20S
CUMBERLAND*    FAIR      73  73 100 CALM      30.08F

$$

VAZ025>031-260700-
SHENANDOAH VALLEY

CITY           SKY/WX    TMP DP  RH WIND       PRES   REMARKS
WINCHESTER*    FAIR      77  73  88 SW3       30.04F
FRONT ROYAL*   FAIR      73  73 100 S6        30.04S
LURAY*         FAIR     N/A N/A N/A CALM      30.07R HAZE
NEW MARKET*    FAIR     N/A N/A N/A CALM      30.06S
STAUNTON*      FAIR      68  68  98 CALM      30.12R FOG
WAYNESBORO*    FAIR      71  70  96 CALM      30.12R

$$

WVZ021-048>050-054>055-260700-
EASTERN WEST VIRGINIA PANHANDLE

CITY           SKY/WX    TMP DP  RH WIND       PRES   REMARKS
MARTINSBURG    FAIR      75  72  90 SW5       30.02F
PETERSBURG*    FAIR      74  71  92 E3        30.08R

$$

VAZ036>039-050-260700-
CENTRAL FOOTHILLS

CITY           SKY/WX    TMP DP  RH WIND       PRES   REMARKS
CHARLOTTESVILL FAIR      77  75  93 SW3       30.05S
CULPEPER*      FAIR      73  73 100 CALM      30.04S FOG
ORANGE*          N/A     75  75 100 CALM      30.05S
GORDONSVILLE*  FAIR      73  73 100 CALM      30.03F
WARRENTON*     HAZE      71  66  85 CALM      30.03R VSB 1

$$

VAZ055>057-260700-
NORTH AND CENTRAL PIEDMONT

CITY           SKY/WX    TMP DP  RH WIND       PRES   REMARKS
FREDERICKSBRG* FAIR      77  74  90 CALM      30.01S
STAFFORD*      FAIR      73  72  97 CALM      30.06S FOG

$$

NCZ024-NYZ072-PAZ021-071-VAZ022-071-260700-
OTHER REGIONAL OBSERVATIONS

CITY           SKY/WX    TMP DP  RH WIND       PRES   REMARKS
NEW YORK CITY    N/A     77  70  78 MISG        N/A
PHILADELPHIA   FAIR      77  70  79 SW8       30.00F
PITTSBURGH     CLOUDY    75  72  90 SW3       30.09R
ROANOKE        FAIR      76  70  82 CALM      30.13S
RICHMOND       FAIR      75  70  84 S5        30.04F
RALEIGH        FAIR      77  69  76 CALM      30.09R

$$

ANZ530>537-260700-
MARINE OBSERVATIONS

STATION/POSITION TIME  TEMP    WIND        PRES
                       AIR SEA DIR/SP/G
                 (UTC) (F)     (DEG/KT/KT) (MB)
THOMAS PT LIGHT  0600   80 81  190/ 11/ 11 1017.5S
BALT KEY BRIDGE  0548          190/  2/  2 1015.9F
COVE POINT       0548          220/  9/ 12 1017.0F
LEWISETTA        0548      82  230/ 10/ 12 1016.4F
SOLOMONS ISLAND  0548      84  220/  6/  9   N/A
PINEY POINT      0548          220/ 12/ 14   N/A

$$





USA.gov is the U.S. government's official web portal to all federal, state and local government web resources and services.